Location: Le Petit-Vavre
(46.5081°N, 1.5239°E)
Time: 07:26:47
(UTC+00:00)

CSL-04 Debris - Pass Details

Date: 03 March 2021
Orbit: 826 x 848 km, 98.9° (Epoch: 18 April)

Event Time Altitude Azimuth Distance (km) Brightness Sun altitude
Rises 18:23:25 0° 148° (SSE) 3,373 7.0 -7.8°
Reaches altitude 10° 18:25:48 10° 144° (SE) 2,446 6.3 -8.2°
Maximum altitude 18:31:03 53° 69° (ENE) 1,034 4.3 -9.1°
Drops below altitude 10° 18:36:22 10° 354° (N) 2,476 6.7 -10.0°
Sets 18:38:47 0° 350° (N) 3,418 7.5 -10.4°
